DECAYED

OBJECT L, 58472 (Decayed)

Orbit data source: Space-Track

You're viewing an Uncataloged Satellite

Recently launched and/or uncataloged satellites may have evolving metadata. Metadata may include but not limited to: Owner, Maufacturer, Bus, Motor, and Mission.

OBJECT L, 58472 was a satellite in LEO that was launched on Fri, 01 Dec 2023 UTC via an FALCON 9 launch vehicle from the Air Force Western Test Range (AFWTR). Unknown objects in Earth's orbit typically refer to objects detected orbiting the Earth but have not yet been identified or cataloged. These objects could be anything from previously untracked satellites, spent rocket stages, debris from satellite collisions, or even natural meteoroids temporarily captured by Earth's gravity. This object's orbit decayed before it could be identified.

Loading next visibility...
Identifier
58472, 2023-185L
Orbit
Decayed
Country
Flag of TBDTBD
Related business
Flag of IEUniversity College Dublin (IE)
Manufacturer
UC Dublin
Mission
Decayed Amateur Science
Bus & Motor
CUBESAT 2U, Unknown motor
Mass
2 kg wet, 2 kg dry
Launch date (UTC)
2023-12-01 (3 years ago)
Launch vehicle
FALCON 9
Launch site
Air Force Western Test Range (AFWTR)
Object type
Unknown
Shape & HBR
Box, 0.1 m
Radar Cross Section
0.025 m², Medium (>0.1 m² and < 1m²)

Expand to show TLE details & history
Last TLE update: 11 months ago

TLE from 11 months ago
0 OBJECT L
1 58472U 23185L   25247.61785164  .16327328  35411-5  21378-3 0  9998
2 58472  97.3302 330.8194 0010438 267.2211  92.7899 16.48977482 98925
Epoch: 2025-09-04T14:49Z
TLE epoch observation values (Epoch: 2025-09-04T14:49:42.381Z)
Latitude
-0.00001°
Longitude
124.41501°
Altitude
145.633 km
Speed
7.819 km/s
True Right ascension
22h 03m 16s
True Declination
0° 00' 00"
Sunlit
Object was in full shadow at epoch
Visualization orbit readout
Latitude
Unknown
Longitude
Unknown
Altitude
Unknown
Speed
Unknown
Apparent Right ascension
Unknown
Apparent Declination
Unknown
Sunlit
N/A
Visualization observer readout
Local Sidereal Time
01:16:04
Azimuth
Unknown
Elevation
Unknown
Doppler factor
Unknown
Orbital elements
Apogee altitude
145.625 km
Perigee altitude
132.02 km
Semi-major axis
6,516.959 km
Eccentricity
0.00104
Inclination
97.3302°
RAAN
330.8194°
Arg. of periapsis
267.2211°
True anomaly
92.90936°
Mean anomaly
92.7899°
Eccentric anomaly
92.84963°
Mean motion
4.12549 °/min
Orbital period
87.26 mins
BSTAR
0.00021378
Loading maneuver chart data...
Computing Atmospheric mass density...
Loading historical data...
Loading historical data...
Loading historical data...
Loading historical data...
Loading historical data...
Loading historical data...
Loading historical data...

Documentation

Showing up to 5 results
|